Bibliothèque

Musique » Lana Del Rey »

Diet Mountain Dew

59 écoutes | Se rendre sur la page du titre

Du Lundi 28 novembre 2011 au Lundi 28 mai 2012 Tout le temps

Titres (59)
Titre Album Durée Date
Diet Mountain Dew 3:43 13 mai 2012, 12h59m
Diet Mountain Dew 3:43 13 mai 2012, 12h06m
Diet Mountain Dew 3:43 10 mai 2012, 19h31m
Diet Mountain Dew 3:43 9 mai 2012, 23h46m
Diet Mountain Dew 3:43 8 avr. 2012, 21h10m
Diet Mountain Dew 3:43 5 avr. 2012, 11h57m
Diet Mountain Dew 3:43 4 avr. 2012, 22h11m
Diet Mountain Dew 3:43 30 mars 2012, 12h40m
Diet Mountain Dew 3:43 29 mars 2012, 13h28m
Diet Mountain Dew 3:43 28 mars 2012, 22h39m
Diet Mountain Dew 3:43 21 mars 2012, 1h00m
Diet Mountain Dew 3:43 20 mars 2012, 1h47m
Diet Mountain Dew 3:43 11 mars 2012, 12h20m
Diet Mountain Dew 3:43 10 mars 2012, 14h33m
Diet Mountain Dew 3:43 10 mars 2012, 8h33m
Diet Mountain Dew 3:43 8 mars 2012, 21h15m
Diet Mountain Dew 3:43 8 mars 2012, 19h50m
Diet Mountain Dew 3:43 8 mars 2012, 19h37m
Diet Mountain Dew 3:43 8 mars 2012, 13h04m
Diet Mountain Dew 3:43 7 mars 2012, 23h34m
Diet Mountain Dew 3:43 7 mars 2012, 21h38m
Diet Mountain Dew 3:43 7 mars 2012, 1h51m
Diet Mountain Dew 3:43 6 mars 2012, 18h18m
Diet Mountain Dew 3:43 5 mars 2012, 23h38m
Diet Mountain Dew 3:43 2 mars 2012, 17h06m
Diet Mountain Dew 3:43 2 mars 2012, 14h33m
Diet Mountain Dew 3:43 2 mars 2012, 2h44m
Diet Mountain Dew 3:43 1 mars 2012, 17h42m
Diet Mountain Dew 3:43 1 mars 2012, 12h06m
Diet Mountain Dew 3:43 1 mars 2012, 3h06m
Diet Mountain Dew 3:43 1 mars 2012, 2h13m
Diet Mountain Dew 3:43 29 fév. 2012, 17h17m
Diet Mountain Dew 3:43 29 fév. 2012, 15h46m
Diet Mountain Dew 3:43 29 fév. 2012, 13h36m
Diet Mountain Dew 3:43 29 fév. 2012, 2h25m
Diet Mountain Dew 3:43 29 fév. 2012, 1h51m
Diet Mountain Dew 3:43 28 fév. 2012, 21h02m
Diet Mountain Dew 3:43 20 fév. 2012, 12h58m
Diet Mountain Dew 3:43 20 fév. 2012, 12h32m
Diet Mountain Dew 3:43 20 fév. 2012, 1h04m
Diet Mountain Dew 3:43 19 fév. 2012, 23h01m
Diet Mountain Dew 3:43 19 fév. 2012, 22h35m
Diet Mountain Dew 3:43 19 fév. 2012, 22h22m
Diet Mountain Dew 3:43 19 fév. 2012, 3h29m
Diet Mountain Dew 3:43 19 fév. 2012, 2h16m
Diet Mountain Dew 3:43 18 fév. 2012, 17h33m
Diet Mountain Dew 3:43 18 fév. 2012, 15h41m
Diet Mountain Dew 3:43 18 fév. 2012, 13h33m
Diet Mountain Dew 3:43 18 fév. 2012, 1h04m
Diet Mountain Dew 3:43 16 fév. 2012, 20h54m
Diet Mountain Dew 3:43 16 fév. 2012, 1h05m
Diet Mountain Dew 3:43 16 fév. 2012, 0h37m
Diet Mountain Dew 3:43 15 fév. 2012, 20h56m
Diet Mountain Dew 3:43 15 fév. 2012, 19h11m
Diet Mountain Dew 3:43 15 fév. 2012, 18h42m
Diet Mountain Dew 3:43 15 fév. 2012, 16h08m
Diet Mountain Dew 3:43 15 fév. 2012, 13h51m
Diet Mountain Dew 3:43 15 fév. 2012, 13h18m
Diet Mountain Dew 3:43 14 fév. 2012, 22h24m